Location: Amberg
(48.0613°N, 10.6820°E)
Time: 06:54:05
(UTC+00:00)

Cosmos 2034 Rocket - Pass Details

Date: 18 November 2025
Orbit: 958 x 998 km, 82.9° (Epoch: 10 December)

Event Time Altitude Azimuth Distance (km) Brightness Sun altitude
Rises 17:55:00 0° 187° (S) 3,639 7.1 -23.0°
Reaches altitude 10° 17:57:28 10° 187° (S) 2,701 6.4 -23.4°
Maximum altitude 18:03:41 89° 280° (W) 982 3.9 -24.4°
Drops below altitude 10° 18:10:00 10° 9° (N) 2,747 6.2 -25.5°
Sets 18:12:32 0° 10° (N) 3,706 6.9 -25.9°
